TimeCST,TemperatureF,Dew PointF,Humidity,Sea Level PressureIn,VisibilityMPH,Wind Direction,Wind SpeedMPH,Gust SpeedMPH,PrecipitationIn,Events,Conditions,WindDirDegrees,DateUTC
12:15 AM,33.8,32.0,93,30.18,10.0,Calm,Calm,-,N/A,,Clear,0,2012-11-15 06:15:00
12:35 AM,35.6,32.0,87,30.18,10.0,Calm,Calm,-,N/A,,Clear,0,2012-11-15 06:35:00
12:55 AM,35.6,32.0,87,30.17,10.0,SE,3.5,-,N/A,,Scattered Clouds,130,2012-11-15 06:55:00
1:15 AM,33.8,32.0,93,30.16,10.0,Calm,Calm,-,N/A,,Clear,0,2012-11-15 07:15:00
1:35 AM,35.6,32.0,87,30.16,10.0,SE,3.5,-,N/A,,Mostly Cloudy,130,2012-11-15 07:35:00
1:55 AM,35.6,32.0,87,30.17,10.0,SE,5.8,-,N/A,,Mostly Cloudy,140,2012-11-15 07:55:00
2:15 AM,35.6,32.0,87,30.17,10.0,SE,4.6,-,N/A,,Mostly Cloudy,140,2012-11-15 08:15:00
2:35 AM,35.6,32.0,87,30.16,10.0,SE,3.5,-,N/A,,Mostly Cloudy,140,2012-11-15 08:35:00
2:55 AM,37.4,32.0,81,30.17,10.0,Calm,Calm,-,N/A,,Mostly Cloudy,0,2012-11-15 08:55:00
3:15 AM,37.4,32.0,81,30.16,10.0,Calm,Calm,-,N/A,,Mostly Cloudy,0,2012-11-15 09:15:00
3:35 AM,37.4,32.0,81,30.15,10.0,SE,6.9,-,N/A,,Overcast,140,2012-11-15 09:35:00
3:55 AM,37.4,32.0,81,30.15,10.0,SE,3.5,-,N/A,,Overcast,140,2012-11-15 09:55:00
4:15 AM,35.6,30.2,81,30.16,10.0,SSE,3.5,-,N/A,,Mostly Cloudy,150,2012-11-15 10:15:00
4:35 AM,37.4,30.2,75,30.15,10.0,Calm,Calm,-,N/A,,Mostly Cloudy,0,2012-11-15 10:35:00
5:15 AM,35.6,30.2,81,30.16,10.0,South,3.5,-,N/A,,Mostly Cloudy,170,2012-11-15 11:15:00
5:35 AM,37.4,30.2,75,30.15,10.0,SE,3.5,-,N/A,,Scattered Clouds,140,2012-11-15 11:35:00
5:55 AM,37.4,30.2,75,30.15,10.0,SE,5.8,-,N/A,,Overcast,140,2012-11-15 11:55:00
6:15 AM,35.6,30.2,81,30.15,10.0,SSE,3.5,-,N/A,,Overcast,150,2012-11-15 12:15:00
6:35 AM,35.6,30.2,81,30.16,10.0,SE,3.5,-,N/A,,Overcast,140,2012-11-15 12:35:00
6:55 AM,35.6,30.2,81,30.16,10.0,SSE,3.5,-,N/A,,Mostly Cloudy,160,2012-11-15 12:55:00
7:15 AM,35.6,30.2,81,30.16,10.0,SSE,3.5,-,N/A,,Overcast,160,2012-11-15 13:15:00
7:35 AM,35.6,30.2,81,30.17,10.0,SSE,3.5,-,N/A,,Overcast,160,2012-11-15 13:35:00
7:55 AM,35.6,30.2,81,30.18,10.0,Calm,Calm,-,N/A,,Mostly Cloudy,0,2012-11-15 13:55:00
8:15 AM,39.2,32.0,75,30.18,10.0,Calm,Calm,-,N/A,,Overcast,0,2012-11-15 14:15:00
8:55 AM,39.2,30.2,70,30.19,10.0,Calm,Calm,-,N/A,,Scattered Clouds,0,2012-11-15 14:55:00
9:15 AM,39.2,30.2,70,30.19,10.0,Calm,Calm,-,N/A,,Scattered Clouds,0,2012-11-15 15:15:00
9:35 AM,41.0,30.2,65,30.20,10.0,South,3.5,-,N/A,,Scattered Clouds,190,2012-11-15 15:35:00
10:15 AM,44.6,30.2,57,30.20,10.0,SSW,5.8,-,N/A,,Clear,200,2012-11-15 16:15:00
10:35 AM,44.6,32.0,61,30.21,10.0,WSW,4.6,-,N/A,,Clear,240,2012-11-15 16:35:00
10:55 AM,44.6,32.0,61,30.22,10.0,WSW,4.6,-,N/A,,Clear,250,2012-11-15 16:55:00
11:15 AM,46.4,32.0,57,30.21,10.0,West,6.9,-,N/A,,Clear,260,2012-11-15 17:15:00
11:35 AM,46.4,32.0,57,30.21,10.0,WSW,6.9,-,N/A,,Clear,250,2012-11-15 17:35:00
11:55 AM,46.4,32.0,57,30.21,10.0,West,8.1,-,N/A,,Clear,260,2012-11-15 17:55:00
12:15 PM,48.2,32.0,54,30.21,10.0,West,4.6,-,N/A,,Clear,270,2012-11-15 18:15:00
12:35 PM,50.0,32.0,50,30.21,10.0,SW,5.8,-,N/A,,Clear,230,2012-11-15 18:35:00
12:55 PM,50.0,32.0,50,30.21,10.0,WSW,6.9,-,N/A,,Clear,250,2012-11-15 18:55:00
1:15 PM,50.0,32.0,50,30.21,10.0,Calm,Calm,-,N/A,,Clear,0,2012-11-15 19:15:00
1:35 PM,51.8,32.0,47,30.21,10.0,WSW,5.8,-,N/A,,Clear,240,2012-11-15 19:35:00
1:55 PM,51.8,32.0,47,30.21,10.0,WNW,4.6,-,N/A,,Clear,300,2012-11-15 19:55:00
2:15 PM,51.8,32.0,47,30.21,10.0,WNW,4.6,-,N/A,,Clear,290,2012-11-15 20:15:00
2:35 PM,51.8,30.2,44,30.22,10.0,West,6.9,-,N/A,,Clear,280,2012-11-15 20:35:00
2:55 PM,51.8,30.2,44,30.22,10.0,NW,6.9,-,N/A,,Clear,310,2012-11-15 20:55:00
3:15 PM,51.8,30.2,44,30.24,10.0,NW,8.1,-,N/A,,Clear,310,2012-11-15 21:15:00
3:35 PM,50.0,30.2,47,30.25,10.0,WNW,5.8,-,N/A,,Clear,300,2012-11-15 21:35:00
3:55 PM,48.2,30.2,50,30.26,10.0,NNW,6.9,-,N/A,,Clear,330,2012-11-15 21:55:00
4:15 PM,46.4,30.2,53,30.28,10.0,NW,6.9,-,N/A,,Clear,320,2012-11-15 22:15:00
4:35 PM,44.6,30.2,57,30.29,10.0,NW,6.9,-,N/A,,Clear,310,2012-11-15 22:35:00
4:55 PM,42.8,28.4,57,30.30,10.0,NW,5.8,-,N/A,,Clear,320,2012-11-15 22:55:00
5:15 PM,42.8,28.4,57,30.30,10.0,NW,5.8,-,N/A,,Clear,310,2012-11-15 23:15:00
5:35 PM,41.0,26.6,57,30.32,10.0,NW,6.9,-,N/A,,Clear,320,2012-11-15 23:35:00
5:55 PM,41.0,21.2,45,30.33,10.0,NNW,8.1,-,N/A,,Clear,330,2012-11-15 23:55:00
6:15 PM,39.2,19.4,45,30.34,10.0,NNW,8.1,-,N/A,,Clear,330,2012-11-16 00:15:00
6:35 PM,37.4,19.4,48,30.35,10.0,NNW,6.9,-,N/A,,Clear,340,2012-11-16 00:35:00
7:15 PM,35.6,17.6,48,30.36,10.0,NNW,4.6,-,N/A,,Clear,340,2012-11-16 01:15:00
7:35 PM,33.8,17.6,52,30.37,10.0,NNW,4.6,-,N/A,,Clear,340,2012-11-16 01:35:00
8:15 PM,32.0,17.6,55,30.38,10.0,NW,4.6,-,N/A,,Clear,320,2012-11-16 02:15:00
8:35 PM,32.0,17.6,55,30.39,10.0,NNW,4.6,-,N/A,,Clear,330,2012-11-16 02:35:00
8:55 PM,32.0,14.0,48,30.40,10.0,NNW,6.9,-,N/A,,Clear,330,2012-11-16 02:55:00
9:15 PM,32.0,14.0,48,30.40,10.0,NNW,5.8,-,N/A,,Clear,330,2012-11-16 03:15:00
9:35 PM,32.0,14.0,48,30.41,10.0,NNW,5.8,-,N/A,,Clear,340,2012-11-16 03:35:00
9:55 PM,32.0,12.2,44,30.41,10.0,NNW,4.6,-,N/A,,Clear,330,2012-11-16 03:55:00
10:15 PM,30.2,12.2,47,30.42,10.0,NNW,3.5,-,N/A,,Clear,330,2012-11-16 04:15:00
10:35 PM,30.2,12.2,47,30.42,10.0,NW,4.6,-,N/A,,Clear,320,2012-11-16 04:35:00
10:55 PM,30.2,12.2,47,30.43,10.0,NNW,4.6,-,N/A,,Clear,330,2012-11-16 04:55:00
11:15 PM,28.4,12.2,51,30.43,10.0,NNW,4.6,-,N/A,,Clear,330,2012-11-16 05:15:00
11:35 PM,28.4,12.2,51,30.44,10.0,NW,3.5,-,N/A,,Clear,320,2012-11-16 05:35:00
11:55 PM,28.4,12.2,51,30.44,10.0,NNW,3.5,-,N/A,,Clear,340,2012-11-16 05:55:00